Back to catalog

ONEWEB-0038

AliveCommunicationsPO
NORAD 45145·PAYLOAD·🇬🇧 United Kingdom

Launched Feb 6, 2020 from Baikonur Cosmodrome

Loading…

Next Passes (next 24 hours)

TLE

FreshSource: CelesTrak SupGP

Epoch: Sep 14, 2026, 12:33 UTC

1 45145C 20008Q   26257.52309444 -.00000793  00000+0 -22411-2 0  2571
2 45145  87.8990   3.3265 0002954  71.1653 339.3936 13.11419007    18

Track ONEWEB-0038 in real time with AllMySat

Download on the App Store